When you browse on this site, cookies collect data to enhance your experience and personalize the content and advertising you see.
Visit our Privacy Policy to learn more. By continuing to use the site, you agree to this use of cookies and data.
  • In Latvia
  • List of Countries
  • For 7 days
  • Water Temperature
  • Satellite Maps
  • Weather Map
  • Weather Widgets
  • user-avatar
    Login

    Hourly Weather Sankt Polten

    Today, 23 July, Tuesday

    Time Temperature Precipitation Wind Pressure Humidity
    00:00 +21°C° 0.1 mm 2 mps 741 mmHg 80%
    01:00 +21°C° 0.1 mm 2 mps 741 mmHg 81%
    02:00 +20°C° 0 mm 2 mps 741 mmHg 83%
    03:00 +21°C° 0 mm 1 mps 741 mmHg 84%
    04:00 +21°C° 0 mm 1 mps 740 mmHg 86%
    05:00 +22°C° 0 mm 1 mps 740 mmHg 83%
    06:00 +23°C° 0 mm 1 mps 741 mmHg 80%
    07:00 +24°C° 0 mm 1 mps 741 mmHg 77%
    08:00 +25°C° 0 mm 1 mps 741 mmHg 69%
    09:00 +27°C° 0 mm 1 mps 741 mmHg 61%
    10:00 +28°C° 0 mm 1 mps 741 mmHg 53%
    11:00 +29°C° 0 mm 1 mps 740 mmHg 50%
    12:00 +30°C° 0 mm 1 mps 740 mmHg 48%
    13:00 +31°C° 0 mm 2 mps 740 mmHg 45%
    14:00 +31°C° 0 mm 1 mps 739 mmHg 46%
    15:00 +31°C° 0 mm 1 mps 739 mmHg 47%
    16:00 +31°C° 0 mm 1 mps 739 mmHg 47%
    17:00 +29°C° 0 mm 1 mps 739 mmHg 56%
    18:00 +28°C° 0 mm 1 mps 739 mmHg 64%
    19:00 +26°C° 0 mm 1 mps 738 mmHg 73%
    20:00 +24°C° 0 mm 1 mps 739 mmHg 75%
    21:00 +23°C° 0 mm 1 mps 739 mmHg 77%
    22:00 +22°C° 0 mm 1 mps 739 mmHg 79%
    23:00 +21°C° 0 mm 1 mps 739 mmHg 80%

    Tomorrow, 24 July, Wednesday

    Time Temperature Precipitation Wind Pressure Humidity
    00:00 +21°C° 0 mm 1 mps 739 mmHg 81%
    01:00 +21°C° 0 mm 1 mps 739 mmHg 82%
    02:00 +20°C° 0 mm 1 mps 739 mmHg 83%
    03:00 +20°C° 0 mm 1 mps 738 mmHg 85%
    04:00 +19°C° 0 mm 1 mps 738 mmHg 87%
    05:00 +19°C° 0 mm 0 mps 738 mmHg 82%
    06:00 +21°C° 0 mm 0 mps 738 mmHg 77%
    07:00 +22°C° 0 mm 0 mps 738 mmHg 73%
    08:00 +26°C° 0 mm 1 mps 738 mmHg 67%
    09:00 +27°C° 0 mm 1 mps 738 mmHg 61%
    10:00 +29°C° 0 mm 1 mps 738 mmHg 55%
    11:00 +30°C° 0 mm 2 mps 738 mmHg 52%
    12:00 +31°C° 0 mm 2 mps 738 mmHg 48%
    13:00 +31°C° 0 mm 2 mps 737 mmHg 45%
    14:00 +31°C° 0 mm 2 mps 737 mmHg 45%
    15:00 +31°C° 0 mm 2 mps 737 mmHg 45%
    16:00 +31°C° 0 mm 2 mps 737 mmHg 45%
    17:00 +29°C° 0 mm 1 mps 737 mmHg 53%
    18:00 +27°C° 0 mm 1 mps 737 mmHg 61%
    19:00 +24°C° 0 mm 0 mps 737 mmHg 69%
    20:00 +24°C° 0 mm 1 mps 737 mmHg 70%
    21:00 +23°C° 0 mm 1 mps 738 mmHg 70%
    22:00 +22°C° 0 mm 1 mps 738 mmHg 70%
    23:00 +21°C° 0 mm 1 mps 738 mmHg 73%

    Day after tomorrow, 25 July, Thursday

    Time Temperature Precipitation Wind Pressure Humidity
    00:00 +21°C° 0 mm 1 mps 738 mmHg 75%
    01:00 +20°C° 0 mm 1 mps 738 mmHg 78%
    02:00 +20°C° 0 mm 1 mps 738 mmHg 80%
    03:00 +20°C° 0 mm 1 mps 738 mmHg 83%
    04:00 +19°C° 0 mm 1 mps 738 mmHg 86%
    05:00 +21°C° 0 mm 1 mps 738 mmHg 82%
    06:00 +22°C° 0 mm 1 mps 738 mmHg 77%
    07:00 +24°C° 0 mm 1 mps 738 mmHg 73%
    08:00 +26°C° 0 mm 1 mps 738 mmHg 67%
    09:00 +27°C° 0 mm 2 mps 738 mmHg 62%
    10:00 +29°C° 0 mm 2 mps 738 mmHg 56%
    11:00 +30°C° 0 mm 2 mps 738 mmHg 52%
    12:00 +31°C° 0 mm 3 mps 737 mmHg 49%
    13:00 +33°C° 0 mm 3 mps 737 mmHg 46%
    14:00 +33°C° 0 mm 3 mps 737 mmHg 45%
    15:00 +33°C° 0 mm 3 mps 736 mmHg 45%
    16:00 +33°C° 0 mm 3 mps 736 mmHg 44%
    17:00 +30°C° 0 mm 2 mps 736 mmHg 52%
    18:00 +28°C° 0 mm 2 mps 736 mmHg 60%
    19:00 +26°C° 0 mm 1 mps 736 mmHg 68%
    20:00 +25°C° 0 mm 1 mps 736 mmHg 68%
    21:00 +24°C° 0 mm 1 mps 736 mmHg 68%
    22:00 +22°C° 0 mm 1 mps 736 mmHg 69%
    23:00 +22°C° 0 mm 1 mps 736 mmHg 72%

    26 July, Friday

    Time Temperature Precipitation Wind Pressure Humidity
    00:00 +22°C° 0 mm 1 mps 736 mmHg 76%
    01:00 +21°C° 0 mm 1 mps 736 mmHg 79%
    02:00 +21°C° 0 mm 1 mps 735 mmHg 82%
    03:00 +20°C° 0 mm 1 mps 735 mmHg 84%
    04:00 +20°C° 0 mm 1 mps 735 mmHg 87%
    05:00 +21°C° 0 mm 1 mps 735 mmHg 83%
    06:00 +23°C° 0 mm 1 mps 735 mmHg 78%
    07:00 +24°C° 0 mm 1 mps 735 mmHg 74%
    08:00 +25°C° 0 mm 2 mps 735 mmHg 69%
    09:00 +27°C° 0 mm 2 mps 734 mmHg 64%
    10:00 +28°C° 0 mm 3 mps 734 mmHg 59%
    11:00 +29°C° 0.1 mm 3 mps 734 mmHg 56%
    12:00 +30°C° 0.1 mm 3 mps 734 mmHg 53%
    13:00 +31°C° 0.1 mm 3 mps 733 mmHg 50%
    14:00 +31°C° 0 mm 3 mps 733 mmHg 50%
    15:00 +30°C° 0 mm 3 mps 733 mmHg 50%
    16:00 +30°C° 0 mm 3 mps 732 mmHg 49%
    17:00 +29°C° 0 mm 2 mps 732 mmHg 57%
    18:00 +27°C° 0 mm 2 mps 732 mmHg 65%
    19:00 +25°C° 0 mm 2 mps 732 mmHg 73%
    20:00 +24°C° 0 mm 2 mps 732 mmHg 74%
    21:00 +23°C° 0 mm 2 mps 733 mmHg 74%
    22:00 +21°C° 0 mm 2 mps 733 mmHg 74%
    23:00 +20°C° 0 mm 2 mps 732 mmHg 77%

    27 July, Saturday

    Time Temperature Precipitation Wind Pressure Humidity
    00:00 +20°C° 0 mm 1 mps 732 mmHg 79%
    01:00 +19°C° 0 mm 1 mps 732 mmHg 81%
    02:00 +19°C° 0 mm 1 mps 732 mmHg 84%
    03:00 +18°C° 0 mm 1 mps 732 mmHg 86%
    04:00 +18°C° 0 mm 1 mps 731 mmHg 89%
    05:00 +19°C° 0 mm 1 mps 731 mmHg 84%
    06:00 +20°C° 0 mm 1 mps 731 mmHg 80%
    07:00 +21°C° 0 mm 1 mps 731 mmHg 75%
    08:00 +23°C° 0 mm 2 mps 731 mmHg 69%
    09:00 +24°C° 0 mm 3 mps 731 mmHg 63%
    10:00 +26°C° 0 mm 3 mps 731 mmHg 57%
    11:00 +27°C° 0 mm 3 mps 731 mmHg 54%
    12:00 +28°C° 0 mm 4 mps 731 mmHg 51%
    13:00 +28°C° 0 mm 4 mps 730 mmHg 48%
    14:00 +29°C° 0 mm 4 mps 730 mmHg 47%
    15:00 +29°C° 0 mm 3 mps 730 mmHg 47%
    16:00 +29°C° 0 mm 3 mps 730 mmHg 46%
    17:00 +27°C° 0 mm 3 mps 729 mmHg 54%
    18:00 +26°C° 0 mm 3 mps 729 mmHg 61%
    19:00 +24°C° 0 mm 2 mps 729 mmHg 69%
    20:00 +23°C° 0 mm 2 mps 729 mmHg 72%
    21:00 +20°C° 0 mm 2 mps 729 mmHg 75%
    22:00 +19°C° 0 mm 2 mps 730 mmHg 78%
    23:00 +19°C° 0 mm 2 mps 730 mmHg 80%

    28 July, Sunday

    Time Temperature Precipitation Wind Pressure Humidity
    00:00 +18°C° 0 mm 2 mps 730 mmHg 83%
    01:00 +18°C° 0 mm 2 mps 729 mmHg 85%
    02:00 +18°C° 0 mm 1 mps 729 mmHg 88%
    03:00 +18°C° 0 mm 1 mps 729 mmHg 90%
    04:00 +16°C° 0 mm 1 mps 729 mmHg 93%
    05:00 +18°C° 0 mm 1 mps 729 mmHg 89%
    06:00 +18°C° 0 mm 2 mps 729 mmHg 85%
    07:00 +20°C° 0 mm 2 mps 729 mmHg 81%
    08:00 +21°C° 0.1 mm 2 mps 729 mmHg 76%
    09:00 +24°C° 0.1 mm 2 mps 730 mmHg 71%
    10:00 +25°C° 0.1 mm 2 mps 730 mmHg 67%
    11:00 +26°C° 0.7 mm 2 mps 730 mmHg 68%
    12:00 +26°C° 0.7 mm 2 mps 729 mmHg 69%
    13:00 +27°C° 0.7 mm 2 mps 729 mmHg 70%
    14:00 +27°C° 0.8 mm 2 mps 729 mmHg 69%
    15:00 +27°C° 0.8 mm 2 mps 729 mmHg 69%
    16:00 +27°C° 0.8 mm 2 mps 729 mmHg 68%
    17:00 +25°C° 0.3 mm 1 mps 729 mmHg 73%
    18:00 +24°C° 0.3 mm 1 mps 729 mmHg 78%
    19:00 +21°C° 0.3 mm 0 mps 730 mmHg 83%
    20:00 +20°C° 0.4 mm 0 mps 730 mmHg 85%
    21:00 +20°C° 0.4 mm 1 mps 730 mmHg 88%
    22:00 +19°C° 0.4 mm 1 mps 730 mmHg 90%
    23:00 +19°C° 0 mm 1 mps 731 mmHg 91%
    Show more